| time (UTC) | temp F | wind direction | speed MPH | gust MPH | rain 1hr in | rain 24hr in | rain mn in | humidity % | barometer mb |
| 20260509081143 | 58 | 102 | 0.0 | 1.0 | 0.00 | 0.00 | 0.00 | 76 | 1016.6 |
| 20260509080128 | 56 | 112 | 0.0 | 0.0 | 0.00 | 0.00 | 0.00 | 79 | 1016.6 |
| 20260509075120 | 55 | 98 | 0.0 | 2.0 | 0.00 | 0.00 | 0.00 | 81 | 1016.6 |
| 20260509074133 | 54 | 115 | 0.0 | 0.0 | 0.00 | 0.00 | 0.00 | 83 | 1016.5 |
| 20260509073117 | 53 | 103 | 0.0 | 0.0 | 0.00 | 0.00 | 0.00 | 85 | 1016.5 |
| 20260509072130 | 52 | 103 | 0.0 | 1.0 | 0.00 | 0.00 | 0.00 | 87 | 1016.6 |
| 20260509071119 | 52 | 107 | 0.0 | 0.0 | 0.00 | 0.00 | 0.00 | 89 | 1016.5 |
| 20260509070132 | 51 | 107 | 0.0 | 0.0 | 0.00 | 0.00 | 0.00 | 91 | 1016.5 |
| 20260509065119 | 51 | 107 | 0.0 | 1.0 | 0.00 | 0.00 | 0.00 | 92 | 1016.4 |
| 20260509064111 | 51 | 107 | 0.0 | 0.0 | 0.00 | 0.00 | 0.00 | 93 | 1016.4 |
| 20260509063123 | 50 | 107 | 0.0 | 0.0 | 0.00 | 0.00 | 0.00 | 94 | 1016.4 |
| 20260509062128 | 49 | 107 | 0.0 | 0.0 | 0.00 | 0.00 | 0.00 | 94 | 1016.4 |
| 20260509061121 | 49 | 107 | 0.0 | 0.0 | 0.00 | 0.00 | 0.00 | 94 | 1016.3 |
| 20260509060133 | 48 | 107 | 0.0 | 0.0 | 0.00 | 0.00 | 0.00 | 94 | 1016.2 |
| 20260509055116 | 48 | 107 | 0.0 | 0.0 | 0.00 | 0.00 | 0.00 | 94 | 1016.1 |
| 20260509054150 | 47 | 107 | 0.0 | 0.0 | 0.00 | 0.00 | 0.00 | 94 | 1016.1 |
| 20260509053115 | 46 | 107 | 0.0 | 0.0 | 0.00 | 0.00 | 0.00 | 94 | 1016.0 |
| 20260509052128 | 46 | 107 | 0.0 | 0.0 | 0.00 | 0.00 | 0.00 | 94 | 1015.9 |
| 20260509051141 | 46 | 107 | 0.0 | 0.0 | 0.00 | 0.00 | 0.00 | 94 | 1015.8 |
| 20260509050134 | 45 | 107 | 0.0 | 0.0 | 0.00 | 0.00 | 0.00 | 94 | 1015.8 |
| 20260509045141 | 45 | 107 | 0.0 | 0.0 | 0.00 | 0.00 | 0.00 | 94 | 1015.6 |
| 20260509044130 | 45 | 107 | 0.0 | 0.0 | 0.00 | 0.00 | 0.00 | 93 | 1015.8 |
| 20260509043122 | 45 | 107 | 0.0 | 0.0 | 0.00 | 0.00 | 0.00 | 93 | 1015.7 |
| 20260509042134 | 45 | 107 | 0.0 | 0.0 | 0.00 | 0.00 | 0.00 | 93 | 1015.6 |
| 20260509041119 | 45 | 107 | 0.0 | 0.0 | 0.00 | 0.00 | 0.00 | 93 | 1015.7 |
| 20260509040113 | 45 | 107 | 0.0 | 0.0 | 0.00 | 0.00 | 0.00 | 93 | 1015.6 |
| 20260509035146 | 45 | 107 | 0.0 | 0.0 | 0.00 | 0.00 | 0.00 | 93 | 1015.6 |
| 20260509034111 | 44 | 107 | 0.0 | 0.0 | 0.00 | 0.00 | 0.00 | 93 | 1015.8 |
| 20260509033145 | 44 | 107 | 0.0 | 0.0 | 0.00 | 0.00 | 0.00 | 92 | 1015.9 |
| 20260509032117 | 45 | 107 | 0.0 | 0.0 | 0.00 | 0.00 | 0.00 | 92 | 1015.9 |
| 20260509031129 | 45 | 107 | 0.0 | 0.0 | 0.00 | 0.00 | 0.00 | 93 | 1016.0 |
| 20260509030113 | 44 | 107 | 0.0 | 0.0 | 0.00 | 0.00 | 0.00 | 92 | 1016.0 |
| 20260509025126 | 44 | 107 | 0.0 | 0.0 | 0.00 | 0.00 | 0.00 | 92 | 1015.9 |
| 20260509024111 | 45 | 107 | 0.0 | 0.0 | 0.00 | 0.00 | 0.00 | 91 | 1015.9 |
| 20260509023125 | 45 | 107 | 0.0 | 0.0 | 0.00 | 0.00 | 0.00 | 91 | 1016.0 |
| 20260509022111 | 45 | 107 | 0.0 | 0.0 | 0.00 | 0.00 | 0.00 | 91 | 1016.0 |
| 20260509021125 | 45 | 107 | 0.0 | 0.0 | 0.00 | 0.00 | 0.00 | 91 | 1016.0 |
| 20260509020137 | 45 | 107 | 0.0 | 0.0 | 0.00 | 0.00 | 0.00 | 91 | 1016.1 |
| 20260509015124 | 45 | 107 | 0.0 | 0.0 | 0.00 | 0.00 | 0.00 | 91 | 1015.9 |
| 20260509014137 | 45 | 107 | 0.0 | 0.0 | 0.00 | 0.00 | 0.00 | 91 | 1016.0 |
| 20260509013128 | 45 | 107 | 0.0 | 0.0 | 0.00 | 0.00 | 0.00 | 90 | 1016.1 |
| 20260509012113 | 45 | 107 | 0.0 | 0.0 | 0.00 | 0.00 | 0.00 | 90 | 1016.1 |
| 20260509011127 | 45 | 107 | 0.0 | 0.0 | 0.00 | 0.00 | 0.00 | 90 | 1016.2 |
| 20260509010112 | 46 | 107 | 0.0 | 0.0 | 0.00 | 0.00 | 0.00 | 90 | 1016.1 |
| 20260509005126 | 46 | 107 | 0.0 | 0.0 | 0.00 | 0.00 | 0.00 | 90 | 1016.1 |
| 20260509004119 | 46 | 107 | 0.0 | 0.0 | 0.00 | 0.00 | 0.00 | 90 | 1016.1 |
| 20260509003152 | 46 | 107 | 0.0 | 0.0 | 0.00 | 0.00 | 0.00 | 88 | 1016.1 |
| 20260509002116 | 46 | 107 | 0.0 | 0.0 | 0.00 | 0.00 | 0.00 | 88 | 1016.0 |
| 20260509001128 | 47 | 107 | 0.0 | 0.0 | 0.00 | 0.00 | 0.00 | 88 | 1016.1 |
| 20260509000114 | 47 | 107 | 0.0 | 0.0 | 0.00 | 0.00 | 0.00 | 88 | 1016.1 |
| 20260508235127 | 48 | 107 | 0.0 | 0.0 | 0.00 | 0.00 | 0.00 | 88 | 1016.2 |
| 20260508234113 | 48 | 107 | 0.0 | 0.0 | 0.00 | 0.00 | 0.00 | 87 | 1016.2 |
| 20260508233127 | 48 | 107 | 0.0 | 0.0 | 0.00 | 0.00 | 0.00 | 87 | 1016.2 |
| 20260508232116 | 48 | 107 | 0.0 | 0.0 | 0.00 | 0.00 | 0.00 | 87 | 1016.3 |
| 20260508231130 | 49 | 107 | 0.0 | 0.0 | 0.00 | 0.00 | 0.00 | 86 | 1016.3 |
| 20260508230122 | 49 | 107 | 0.0 | 0.0 | 0.00 | 0.00 | 0.00 | 86 | 1016.2 |
| 20260508225129 | 49 | 107 | 0.0 | 0.0 | 0.00 | 0.00 | 0.00 | 85 | 1016.2 |
| 20260508224122 | 49 | 107 | 0.0 | 0.0 | 0.00 | 0.00 | 0.00 | 85 | 1016.2 |
| 20260508223136 | 50 | 107 | 0.0 | 0.0 | 0.00 | 0.00 | 0.00 | 84 | 1016.1 |
| 20260508222121 | 50 | 107 | 0.0 | 0.0 | 0.00 | 0.00 | 0.00 | 84 | 1016.2 |
| 20260508221133 | 50 | 107 | 0.0 | 0.0 | 0.00 | 0.00 | 0.00 | 83 | 1016.3 |
| 20260508220139 | 51 | 107 | 0.0 | 0.0 | 0.00 | 0.00 | 0.00 | 83 | 1016.2 |
| 20260508215130 | 51 | 107 | 0.0 | 0.0 | 0.00 | 0.00 | 0.00 | 83 | 1016.3 |
| 20260508214142 | 51 | 107 | 0.0 | 0.0 | 0.00 | 0.00 | 0.00 | 83 | 1016.3 |
| 20260508213134 | 51 | 107 | 0.0 | 0.0 | 0.00 | 0.00 | 0.00 | 83 | 1016.2 |
| 20260508212121 | 51 | 107 | 0.0 | 0.0 | 0.00 | 0.00 | 0.00 | 83 | 1016.2 |
| 20260508211135 | 51 | 107 | 0.0 | 0.0 | 0.00 | 0.00 | 0.00 | 83 | 1016.2 |
| 20260508210120 | 51 | 107 | 0.0 | 0.0 | 0.00 | 0.00 | 0.00 | 81 | 1016.2 |
| 20260508205133 | 51 | 107 | 0.0 | 0.0 | 0.00 | 0.00 | 0.00 | 80 | 1016.3 |
| 20260508204124 | 52 | 107 | 0.0 | 0.0 | 0.00 | 0.00 | 0.00 | 80 | 1016.2 |
| 20260508203138 | 52 | 107 | 0.0 | 0.0 | 0.00 | 0.00 | 0.00 | 78 | 1016.1 |
| 20260508202123 | 53 | 107 | 0.0 | 0.0 | 0.00 | 0.00 | 0.00 | 78 | 1016.1 |
| 20260508201116 | 53 | 107 | 0.0 | 0.0 | 0.00 | 0.00 | 0.00 | 77 | 1016.0 |
| 20260508200130 | 54 | 107 | 0.0 | 0.0 | 0.00 | 0.00 | 0.00 | 77 | 1015.9 |
| 20260508195112 | 55 | 107 | 0.0 | 0.0 | 0.00 | 0.00 | 0.00 | 77 | 1015.8 |
| 20260508194123 | 55 | 98 | 0.0 | 0.0 | 0.00 | 0.00 | 0.00 | 76 | 1015.7 |
| 20260508193117 | 56 | 98 | 0.0 | 0.0 | 0.00 | 0.00 | 0.00 | 76 | 1015.6 |
| 20260508192149 | 56 | 96 | 0.0 | 2.0 | 0.00 | 0.00 | 0.00 | 75 | 1015.5 |
| 20260508191131 | 57 | 118 | 0.0 | 1.0 | 0.00 | 0.00 | 0.00 | 75 | 1015.4 |
| 20260508190124 | 57 | 114 | 0.0 | 1.0 | 0.00 | 0.00 | 0.00 | 75 | 1015.3 |
| 20260508185130 | 58 | 115 | 0.0 | 1.0 | 0.00 | 0.00 | 0.00 | 74 | 1015.2 |
| 20260508184122 | 59 | 120 | 0.0 | 1.0 | 0.00 | 0.00 | 0.00 | 73 | 1015.2 |
| 20260508183136 | 59 | 120 | 0.0 | 1.0 | 0.00 | 0.00 | 0.00 | 72 | 1015.1 |
| 20260508182115 | 61 | 99 | 0.0 | 1.0 | 0.00 | 0.00 | 0.00 | 71 | 1015.1 |
| 20260508181144 | 61 | 101 | 0.0 | 1.0 | 0.00 | 0.00 | 0.00 | 70 | 1015.0 |
| 20260508180136 | 62 | 89 | 0.0 | 1.0 | 0.00 | 0.00 | 0.00 | 70 | 1014.9 |
| 20260508175150 | 62 | 108 | 0.0 | 1.0 | 0.00 | 0.00 | 0.00 | 70 | 1014.8 |
| 20260508174134 | 63 | 120 | 0.0 | 1.0 | 0.00 | 0.00 | 0.00 | 69 | 1014.7 |
| 20260508173123 | 63 | 115 | 0.0 | 0.0 | 0.00 | 0.00 | 0.00 | 70 | 1014.6 |
| 20260508172132 | 63 | 103 | 0.0 | 1.0 | 0.00 | 0.00 | 0.00 | 71 | 1014.6 |
| 20260508171147 | 63 | 104 | 0.0 | 2.0 | 0.00 | 0.00 | 0.00 | 70 | 1014.5 |
| 20260508170129 | 63 | 102 | 0.0 | 2.0 | 0.00 | 0.00 | 0.00 | 69 | 1014.5 |
| 20260508165122 | 64 | 88 | 0.0 | 1.0 | 0.00 | 0.00 | 0.00 | 68 | 1014.4 |
| 20260508164114 | 64 | 340 | 0.0 | 2.0 | 0.00 | 0.00 | 0.00 | 66 | 1014.4 |
| 20260508163119 | 65 | 75 | 0.0 | 3.0 | 0.00 | 0.00 | 0.00 | 61 | 1014.3 |
| 20260508162153 | 66 | 82 | 0.0 | 3.0 | 0.00 | 0.00 | 0.00 | 57 | 1014.2 |
| 20260508161124 | 66 | 96 | 0.0 | 2.0 | 0.00 | 0.00 | 0.00 | 60 | 1014.2 |
| 20260508160129 | 66 | 99 | 0.0 | 4.0 | 0.00 | 0.00 | 0.00 | 61 | 1014.2 |
| 20260508155120 | 66 | 115 | 0.0 | 3.0 | 0.00 | 0.00 | 0.00 | 57 | 1014.1 |
| 20260508154112 | 67 | 101 | 0.0 | 5.0 | 0.00 | 0.00 | 0.00 | 57 | 1014.1 |
| 20260508153147 | 67 | 124 | 0.0 | 2.0 | 0.00 | 0.00 | 0.00 | 57 | 1014.1 |
| 20260508152129 | 67 | 347 | 0.0 | 3.0 | 0.00 | 0.00 | 0.00 | 57 | 1014.1 |
| 20260508151122 | 67 | 95 | 0.0 | 3.0 | 0.00 | 0.00 | 0.00 | 55 | 1014.1 |
| 20260508150135 | 67 | 113 | 0.0 | 2.0 | 0.00 | 0.00 | 0.00 | 55 | 1014.2 |
| 20260508145121 | 66 | 93 | 1.0 | 4.0 | 0.00 | 0.00 | 0.00 | 52 | 1014.3 |
| 20260508144134 | 66 | 105 | 0.0 | 2.0 | 0.00 | 0.00 | 0.00 | 57 | 1014.3 |
| 20260508143120 | 65 | 346 | 1.0 | 5.0 | 0.00 | 0.00 | 0.00 | 60 | 1014.4 |
| 20260508142128 | 65 | 96 | 1.0 | 2.0 | 0.00 | 0.00 | 0.00 | 60 | 1014.4 |
| 20260508141121 | 65 | 102 | 1.0 | 4.0 | 0.00 | 0.00 | 0.00 | 57 | 1014.5 |
| 20260508140128 | 65 | 109 | 0.0 | 4.0 | 0.00 | 0.00 | 0.00 | 60 | 1014.4 |
| 20260508135120 | 66 | 158 | 0.0 | 4.0 | 0.00 | 0.00 | 0.00 | 59 | 1014.4 |
| 20260508134134 | 66 | 89 | 0.0 | 3.0 | 0.00 | 0.00 | 0.00 | 60 | 1014.3 |
| 20260508133119 | 66 | 100 | 1.0 | 3.0 | 0.00 | 0.00 | 0.00 | 57 | 1014.4 |
| 20260508132116 | 67 | 67 | 0.0 | 6.0 | 0.00 | 0.00 | 0.00 | 57 | 1014.3 |
| 20260508131123 | 67 | 329 | 0.0 | 3.0 | 0.00 | 0.00 | 0.00 | 60 | 1014.2 |
| 20260508130115 | 67 | 132 | 0.0 | 2.0 | 0.00 | 0.00 | 0.00 | 62 | 1014.2 |
| 20260508125128 | 66 | 97 | 1.0 | 2.0 | 0.00 | 0.00 | 0.00 | 64 | 1014.1 |
| 20260508124123 | 66 | 107 | 0.0 | 4.0 | 0.00 | 0.00 | 0.00 | 63 | 1014.1 |
| 20260508123136 | 67 | 104 | 0.0 | 3.0 | 0.00 | 0.00 | 0.00 | 62 | 1014.0 |
| 20260508122126 | 67 | 105 | 0.0 | 2.0 | 0.00 | 0.00 | 0.00 | 61 | 1014.1 |
| 20260508121120 | 67 | 165 | 0.0 | 2.0 | 0.00 | 0.00 | 0.00 | 62 | 1014.2 |
| 20260508120154 | 66 | 117 | 0.0 | 4.0 | 0.00 | 0.00 | 0.00 | 60 | 1014.3 |
| 20260508115119 | 67 | 98 | 0.0 | 2.0 | 0.00 | 0.00 | 0.00 | 61 | 1014.2 |
| 20260508114130 | 67 | 108 | 0.0 | 2.0 | 0.00 | 0.00 | 0.00 | 60 | 1014.4 |
| 20260508113115 | 67 | 125 | 0.0 | 2.0 | 0.00 | 0.00 | 0.00 | 62 | 1014.3 |
| 20260508112114 | 68 | 108 | 0.0 | 3.0 | 0.00 | 0.00 | 0.00 | 62 | 1014.2 |
| 20260508111121 | 68 | 126 | 1.0 | 6.0 | 0.00 | 0.00 | 0.00 | 62 | 1014.1 |
| 20260508110114 | 67 | 116 | 0.0 | 2.0 | 0.00 | 0.00 | 0.00 | 62 | 1014.2 |
| 20260508105148 | 66 | 95 | 0.0 | 2.0 | 0.00 | 0.00 | 0.00 | 66 | 1014.1 |
| 20260508104142 | 64 | 84 | 1.0 | 3.0 | 0.00 | 0.00 | 0.00 | 67 | 1014.1 |
| 20260508103127 | 65 | 94 | 0.0 | 2.0 | 0.00 | 0.00 | 0.00 | 64 | 1014.1 |
| 20260508102120 | 65 | 109 | 0.0 | 2.0 | 0.00 | 0.00 | 0.00 | 65 | 1013.9 |
| 20260508101155 | 65 | 115 | 0.0 | 2.0 | 0.00 | 0.00 | 0.00 | 66 | 1014.0 |
| 20260508100147 | 64 | 120 | 0.0 | 1.0 | 0.00 | 0.00 | 0.00 | 67 | 1014.1 |
| 20260508095112 | 64 | 129 | 0.0 | 2.0 | 0.00 | 0.00 | 0.00 | 67 | 1014.1 |
| 20260508094124 | 64 | 105 | 0.0 | 2.0 | 0.00 | 0.00 | 0.00 | 67 | 1014.1 |
| 20260508093110 | 63 | 107 | 0.0 | 1.0 | 0.00 | 0.00 | 0.00 | 66 | 1014.0 |
| 20260508092144 | 63 | 115 | 0.0 | 1.0 | 0.00 | 0.00 | 0.00 | 71 | 1013.9 |
| 20260508091115 | 62 | 129 | 0.0 | 1.0 | 0.00 | 0.00 | 0.00 | 74 | 1013.9 |
| 20260508090122 | 61 | 95 | 0.0 | 1.0 | 0.00 | 0.00 | 0.00 | 75 | 1013.9 |
| 20260508085114 | 60 | 115 | 0.0 | 2.0 | 0.00 | 0.00 | 0.00 | 79 | 1013.9 |
| 20260508084117 | 58 | 131 | 0.0 | 2.0 | 0.00 | 0.00 | 0.00 | 83 | 1014.0 |
| 20260508083109 | 57 | 98 | 0.0 | 1.0 | 0.00 | 0.00 | 0.00 | 82 | 1014.0 |
| 20260508082123 | 57 | 121 | 0.0 | 1.0 | 0.00 | 0.00 | 0.00 | 82 | 1014.0 |